Weather History for Richlands, VA

Change the Weather History Date:

Thursday, December 27, 2012

  Actual Average (KBLF) Record (KBLF)
Temperature  
Mean Temperature 26 °F 35 °F  
Max Temperature 28 °F 43 °F 69 °F (2008)
Min Temperature 23 °F 27 °F 9 °F (1977)
Degree Days  
Heating Degree Days 40 30  
Month to date heating degree days 740  
Since 1 July heating degree days 1643  
Cooling Degree Days 0 0  
Month to date cooling degree days 0  
Year to date cooling degree days 853  
Moisture  
Dew Point 25 °F    
Average Humidity 99    
Maximum Humidity 100    
Minimum Humidity 93    
Precipitation  
Precipitation 0.00 in 0.08 in 0.81 in (1990)
Month to date precipitation 2.55  
Year to date precipitation 39.27  
Snow  
Snow 0.00 in - - ()
Month to date snowfall  
Since 1 July snowfall  
Snow Depth -    
Sea Level Pressure  
Sea Level Pressure 29.94 in    
Wind  
Wind Speed 11 mph (WNW)    
Max Wind Speed 20 mph    
Max Gust Speed 33 mph    
Visibility 7 miles    
Events      
T = Trace of Precipitation, MM = Missing Value Source: NWS Daily Summary

Daily Weather History Graph

Daily Weather History Graph

Search for Another Location

Airport:

Trip Planner

Search our weather history database for the weather conditions in past years. The results will help you decide how hot, cold, wet, or windy it might be!

Date:

Astronomy

Dec. 27, 2012 Rise Set
Actual Time 7:39 AM EST 5:17 PM EST
Civil Twilight 7:10 AM EST 5:46 PM EST
Nautical Twilight 6:37 AM EST 6:19 PM EST
Astronomical Twilight 6:06 AM EST 6:50 PM EST
Moon 4:58 PM EST (12/27) 6:50 AM EST (12/27)
Length of Visible Light 10h 36m
Length of Day
9h 38m
Full, 100% of the Moon is Illuminated
Dec 27
Full
Dec 28
Full
Jan 4
Last Quarter
Jan 11
New
Jan 18
First Quarter

Hourly Weather History & Observations

Time (EST) Temp. Windchill Dew Point Humidity Pressure Visibility Wind Dir Wind Speed Gust Speed Precip Events Conditions
12:15 AM 28.4 °F 16.6 °F 26.6 °F 93% 29.72 in 10.0 mi West 16.1 mph - N/A   Unknown
12:35 AM 26.6 °F 14.3 °F 26.6 °F 100% 29.73 in 8.0 mi West 16.1 mph 33.4 mph N/A   Unknown
12:55 AM 26.6 °F 13.1 °F 26.6 °F 100% 29.73 in 6.0 mi West 19.6 mph - N/A   Unknown
1:15 AM 26.6 °F 14.7 °F 26.6 °F 100% 29.75 in 5.0 mi West 15.0 mph 28.8 mph N/A   Unknown
1:35 AM 26.6 °F 15.7 °F 26.6 °F 100% 29.77 in 8.0 mi West 12.7 mph - N/A   Unknown
1:55 AM 26.6 °F 14.7 °F 26.6 °F 100% 29.77 in 8.0 mi West 15.0 mph - N/A   Unknown
2:15 AM 26.6 °F 15.7 °F 26.6 °F 100% 29.78 in 10.0 mi WNW 12.7 mph 25.3 mph N/A   Unknown
2:35 AM 26.6 °F 14.7 °F 26.6 °F 100% 29.79 in 10.0 mi West 15.0 mph - N/A   Unknown
2:55 AM 26.6 °F 14.7 °F 26.6 °F 100% 29.80 in 10.0 mi West 15.0 mph 26.5 mph N/A   Unknown
3:15 AM 26.6 °F 17.5 °F 26.6 °F 100% 29.80 in 5.0 mi West 9.2 mph - N/A   Unknown
3:35 AM 26.6 °F 16.2 °F 26.6 °F 100% 29.82 in 5.0 mi West 11.5 mph - N/A   Unknown
3:55 AM 26.6 °F 15.2 °F 26.6 °F 100% 29.83 in 8.0 mi WNW 13.8 mph 25.3 mph N/A   Unknown
4:15 AM 26.6 °F 16.2 °F 24.8 °F 93% 29.83 in 10.0 mi West 11.5 mph - N/A   Unknown
4:35 AM 26.6 °F 14.7 °F 24.8 °F 93% 29.85 in 6.0 mi West 15.0 mph 24.2 mph N/A   Unknown
4:55 AM 24.8 °F 14.6 °F 24.8 °F 100% 29.86 in 10.0 mi West 10.4 mph - N/A   Unknown
5:35 AM 24.8 °F 12.9 °F 24.8 °F 100% 29.87 in 8.0 mi WNW 13.8 mph 24.2 mph N/A   Unknown
5:55 AM 24.8 °F 14.0 °F 24.8 °F 100% 29.89 in 9.0 mi WNW 11.5 mph - N/A   Unknown
6:15 AM 24.8 °F 12.9 °F 24.8 °F 100% 29.90 in 10.0 mi WNW 13.8 mph - N/A   Unknown
6:35 AM 24.8 °F 13.4 °F 24.8 °F 100% 29.89 in 10.0 mi WNW 12.7 mph - N/A   Unknown
6:55 AM 24.8 °F 14.0 °F 24.8 °F 100% 29.91 in 10.0 mi WNW 11.5 mph - N/A   Clear
7:15 AM 24.8 °F 16.9 °F 24.8 °F 100% 29.93 in 8.0 mi West 6.9 mph - N/A   Clear
7:35 AM 24.8 °F 16.1 °F 24.8 °F 100% 29.93 in 7.0 mi West 8.1 mph - N/A   Clear
7:55 AM 24.8 °F 14.6 °F 24.8 °F 100% 29.92 in 6.0 mi WNW 10.4 mph 19.6 mph N/A   Unknown
8:15 AM 24.8 °F 15.3 °F 24.8 °F 100% 29.94 in 7.0 mi West 9.2 mph - N/A   Clear
8:35 AM 24.8 °F 14.6 °F 24.8 °F 100% 29.95 in 7.0 mi WNW 10.4 mph - N/A   Clear
8:55 AM 24.8 °F 13.4 °F 24.8 °F 100% 29.95 in 7.0 mi West 12.7 mph - N/A   Clear
9:15 AM 24.8 °F 16.9 °F 24.8 °F 100% 29.96 in 8.0 mi WNW 6.9 mph - N/A   Clear
9:55 AM 24.8 °F 14.0 °F 24.8 °F 100% 29.98 in 5.0 mi WNW 11.5 mph - N/A   Unknown
10:15 AM 24.8 °F 16.1 °F 24.8 °F 100% 29.97 in 10.0 mi WNW 8.1 mph - N/A   Clear
10:55 AM 24.8 °F 14.0 °F 24.8 °F 100% 29.98 in 9.0 mi WNW 11.5 mph - N/A   Clear
11:15 AM 24.8 °F 13.4 °F 24.8 °F 100% 29.98 in 10.0 mi WNW 12.7 mph - N/A   Unknown
11:35 AM 24.8 °F 14.0 °F 24.8 °F 100% 29.98 in 10.0 mi WNW 11.5 mph - N/A   Clear
11:55 AM 24.8 °F 16.9 °F 24.8 °F 100% 29.97 in 8.0 mi West 6.9 mph - N/A   Clear
12:15 PM 24.8 °F 14.6 °F 24.8 °F 100% 29.97 in 10.0 mi WNW 10.4 mph - N/A   Clear
12:35 PM 24.8 °F 14.6 °F 24.8 °F 100% 29.97 in 9.0 mi WNW 10.4 mph - N/A   Clear
12:55 PM 24.8 °F 19.1 °F 24.8 °F 100% 29.96 in 7.0 mi WNW 4.6 mph - N/A   Clear
1:15 PM 24.8 °F 15.3 °F 24.8 °F 100% 29.96 in 5.0 mi WNW 9.2 mph - N/A   Clear
1:35 PM 24.8 °F 16.9 °F 24.8 °F 100% 29.96 in 4.0 mi WNW 6.9 mph - N/A   Unknown
1:55 PM 24.8 °F 17.9 °F 24.8 °F 100% 29.96 in 2.5 mi Variable 5.8 mph - N/A   Unknown
2:15 PM 24.8 °F 17.9 °F 24.8 °F 100% 29.96 in 1.8 mi West 5.8 mph - N/A   Unknown
2:35 PM 24.8 °F 16.1 °F 24.8 °F 100% 29.96 in 1.0 mi WNW 8.1 mph - N/A   Unknown
2:55 PM 24.8 °F 16.1 °F 24.8 °F 100% 29.97 in 0.2 mi WNW 8.1 mph - N/A   Overcast
3:15 PM 24.8 °F 14.6 °F 24.8 °F 100% 29.98 in 0.8 mi West 10.4 mph - N/A   Overcast
3:35 PM 24.8 °F 16.9 °F 24.8 °F 100% 30.00 in 0.5 mi WNW 6.9 mph - N/A   Mostly Cloudy
3:55 PM 24.8 °F 16.9 °F 24.8 °F 100% 30.01 in 2.0 mi Variable 6.9 mph - N/A   Unknown
4:15 PM 24.8 °F 15.3 °F 24.8 °F 100% 30.01 in 7.0 mi WNW 9.2 mph - N/A   Unknown
4:35 PM 24.8 °F 16.1 °F 24.8 °F 100% 30.01 in 5.0 mi NW 8.1 mph - N/A   Clear
5:15 PM 24.8 °F 17.9 °F 24.8 °F 100% 30.02 in 3.0 mi WNW 5.8 mph - N/A   Unknown
5:35 PM 24.8 °F 19.1 °F 24.8 °F 100% 30.02 in 6.0 mi Variable 4.6 mph - N/A   Unknown
5:55 PM 24.8 °F 19.1 °F 24.8 °F 100% 30.03 in 4.0 mi NW 4.6 mph - N/A   Partly Cloudy
6:15 PM 24.8 °F 16.9 °F 24.8 °F 100% 30.03 in 3.0 mi NNW 6.9 mph - N/A   Unknown
6:35 PM 24.8 °F 16.9 °F 24.8 °F 100% 30.04 in 7.0 mi Variable 6.9 mph - N/A   Unknown
6:55 PM 24.8 °F 17.9 °F 24.8 °F 100% 30.05 in 7.0 mi NW 5.8 mph - N/A   Clear
7:15 PM 24.8 °F 19.1 °F 24.8 °F 100% 30.04 in 7.0 mi NNW 4.6 mph - N/A   Clear
7:35 PM 24.8 °F - 23.0 °F 93% 30.04 in 6.0 mi Calm Calm - N/A   Clear
7:55 PM 24.8 °F 20.5 °F 23.0 °F 93% 30.04 in 8.0 mi Variable 3.5 mph - N/A   Clear
8:15 PM 24.8 °F 20.5 °F 23.0 °F 93% 30.03 in 10.0 mi WNW 3.5 mph - N/A   Clear
8:35 PM 24.8 °F 20.5 °F 24.8 °F 100% 30.04 in 8.0 mi WNW 3.5 mph - N/A   Clear
8:55 PM 24.8 °F - 24.8 °F 100% 30.05 in 9.0 mi Calm Calm - N/A   Clear
9:15 PM 24.8 °F 20.5 °F 24.8 °F 100% 30.05 in 10.0 mi NNW 3.5 mph - N/A   Clear
9:35 PM 23.0 °F - 23.0 °F 100% 30.04 in 10.0 mi Calm Calm - N/A   Clear
9:55 PM 24.8 °F - 24.8 °F 100% 30.04 in 8.0 mi Calm Calm - N/A   Clear
10:15 PM 24.8 °F 20.5 °F 24.8 °F 100% 30.04 in 8.0 mi NW 3.5 mph - N/A   Clear
10:35 PM 24.8 °F - 24.8 °F 100% 30.05 in 8.0 mi Calm Calm - N/A   Clear
10:55 PM 24.8 °F - 24.8 °F 100% 30.05 in 8.0 mi Calm Calm - N/A   Clear
11:55 PM 24.8 °F - 24.8 °F 100% 30.04 in 8.0 mi Calm Calm - N/A   Clear